Regional Weather Roundup
Issued by NWS

Home | Current Version | Previous Version | Text Only | Print | Product List | Glossary On
Versions: 1 2 3 4 5 6 7 8 9 10 11 12 13 14 15 16 17 18 19 20 21 22 23 24 25 26 27 28 29 30 31 32 33 34 35 36 37 38 39 40 41 42 43 44 45 46 47 48 49 50
000
ASCA42 TJSJ 021210
RWRPR
PUERTO RICO/U.S. VIRGIN ISLANDS HOURLY WEATHER ROUNDUP
NATIONAL WEATHER SERVICE SAN JUAN PR
800 AM AST MON MAR 02 2015

PRZ001-004-021300-
PUERTO RICO

CITY           SKY/WX    TMP DP  RH WIND       PRES   REMARKS
SAN JUAN LMM   PTSUNNY   73  72  94 S3        30.10R
AGUADILLA      MOSUNNY   72  68  88 E8        30.11
CEIBA          MOSUNNY    1 N/A N/A E9        30.12R WCI -14
$$

PRZ006-007-021300-
U.S. VIRGIN ISLANDS

CITY           SKY/WX    TMP DP  RH WIND       PRES   REMARKS
$$

HOURLY WEATHER ROUNDUP FOR THE NEWS MEDIA

CITY           SKY/WX    TMP DP  RH WIND       PRES   REMARKS
ORLANDO        FOG       63  63 100 E5        30.30S VSB 1/2
NEW YORK       CLOUDY    30  26  85 SW9       30.05R FOG     WCI  22
NEWARK         CLOUDY    31  28  89 W6        30.05R WCI  25
CHICAGO        PTCLDY    14   8  77 W10       30.45R WCI   1
HARTFORD       CLOUDY    28  26  92 W7        29.95F WCI  21
BOSTON         CLOUDY    29  22  75 W9        29.94F WCI  20
DALLAS         CLOUDY    36  34  93 N7        30.38R FOG     WCI  30
PHILADELPHIA   CLOUDY    32  30  92 W9        30.11R FOG     WCI  24
LOS ANGELES    MOCLDY    49  47  93 SE5       29.89F
WASHINGTON DC  CLOUDY    31  29  92 NW3       30.13R FOG



USA.gov is the U.S. government's official web portal to all federal, state and local government web resources and services.